Flag for Spain Weather past 2 weeks in Santa Cruz de Tenerife, Canary Islands, Spain

Now
57 °F

Scattered clouds.


Feels Like: 53 °F
Forecast: 64 / 69 °F
Wind: 21 mph from Northwest

Location: Tenerife / Los Rodeos

Current Time: Apr 18, 2015 at 7:02:17 PM

Latest Report: Apr 18, 2015 at 6:30 PM


Visibility: N/A

Pressure: 30.09 "Hg

Humidity: 67%

Dew point: 46 °F

Location of Santa Cruz de TenerifeLocation

Historic Weather in Santa Cruz de Tenerife — Graph

°F

Santa Cruz de Tenerife temperature yesterday

Maximum temperature yesterday: 63 °F (at 1:00 PM)
Minimum temperature yesterday: 52 °F (at 6:30 AM)
Average temperature yesterday: 58 °F

Past Weeks' High & Low Weather Summary

 TemperatureHumidityPressure
High64 °F (Apr 13, 3:30 PM)100% (Apr 3, 8:00 PM)30.27 "Hg (Apr 3, 8:00 PM)
Low46 °F (Apr 7, 6:00 AM)52% (Apr 13, 3:30 PM)29.95 "Hg (Apr 6, 5:00 PM)
Average56 °F82%30.09 "Hg
* Reported Apr 3 6:00 PM — Apr 18 6:00 PM, Santa Cruz de Tenerife, Weather by CustomWeather, © 2015

Note: Actual official high and low records may vary slightly from our data, if they occured in-between our weather recording intervals... More about our weather records

Advertising

Santa Cruz de Tenerife weather history for previous 24 hours

 ConditionsComfort  
Time TempWeatherWind HumidityBarometerVisibility
6:00 PM
Sat, Apr 18
61 °FScattered clouds.18 mph59%30.09 "HgN/A
5:30 PM61 °FScattered clouds.15 mph59%30.07 "HgN/A
5:00 PM61 °FScattered clouds.15 mph63%30.09 "HgN/A
4:30 PM63 °FScattered clouds.12 mph56%30.09 "HgN/A
4:00 PM63 °FScattered clouds.13 mph56%30.09 "HgN/A
3:30 PM63 °FScattered clouds.13 mph64%30.09 "HgN/A
3:00 PM61 °FScattered clouds.10 mph63%30.12 "HgN/A
2:30 PM61 °FScattered clouds.10 mph55%30.12 "HgN/A
2:00 PM61 °FPartly sunny.12 mph59%30.12 "HgN/A
1:30 PM61 °FPartly sunny.12 mph63%30.12 "HgN/A
1:00 PM61 °FPartly sunny.14 mph63%30.12 "HgN/A
12:30 PM63 °FPartly sunny.13 mph64%30.12 "HgN/A
12:00 PM63 °FPartly sunny.10 mph59%30.12 "HgN/A
11:30 AM59 °FPartly sunny.12 mph68%30.12 "HgN/A
11:00 AM59 °FPartly sunny.9 mph68%30.12 "HgN/A
10:30 AM57 °FPartly sunny.9 mph77%30.12 "HgN/A
10:00 AM55 °FPartly sunny.9 mph82%30.12 "HgN/A
9:30 AM55 °FPartly sunny.8 mph88%30.09 "HgN/A
9:00 AM55 °FPartly sunny.9 mph94%30.09 "HgN/A
8:30 AM54 °FPassing clouds.8 mph94%30.09 "HgN/A
8:00 AM54 °FPassing clouds.8 mph88%30.09 "HgN/A
7:30 AM54 °FPassing clouds.9 mph82%30.09 "HgN/A
7:00 AM54 °FPassing clouds.12 mph88%30.07 "HgN/A
6:30 AM52 °FPassing clouds.8 mph88%30.07 "HgN/A
6:00 AM52 °FPassing clouds.8 mph88%30.07 "HgN/A
11:00 PM
Fri, Apr 17
55 °FPassing clouds.9 mph72%30.12 "HgN/A
10:30 PM55 °FPassing clouds.9 mph82%30.12 "HgN/A
10:00 PM54 °FPassing clouds.9 mph88%30.12 "HgN/A
9:30 PM55 °FScattered clouds.9 mph82%30.09 "HgN/A
9:00 PM55 °FScattered clouds.9 mph82%30.07 "HgN/A
8:30 PM55 °FScattered clouds.9 mph82%30.07 "HgN/A
8:00 PM57 °FScattered clouds.9 mph77%30.07 "HgN/A
7:30 PM59 °FScattered clouds.9 mph77%30.07 "HgN/A
7:00 PM61 °FScattered clouds.9 mph72%30.07 "HgN/A
Weather by CustomWeather, © 2015

See weather overviewHow to use our weather pages